Weather History for KPQN - May, 2013

Change the Weather History Date:

Monday, May 6, 2013

  Actual Average Record
Temperature  
Mean Temperature 52 °F -  
Max Temperature 60 °F 62 °F 80 °F (2000)
Min Temperature 44 °F 42 °F 35 °F (1997)
Degree Days  
Heating Degree Days 13    
Growing Degree Days 2 (Base 50)    
Moisture  
Dew Point 44 °F    
Average Humidity 82    
Maximum Humidity 93    
Minimum Humidity 55    
Precipitation  
Precipitation 0.00 in - - ()
Sea Level Pressure  
Sea Level Pressure 30.10 in    
Wind  
Wind Speed 2 mph (West)    
Max Wind Speed 6 mph    
Max Gust Speed -    
Visibility 9 miles    
Events      
Averages and records for this station are not official NWS values.
T = Trace of Precipitation, MM = Missing Value Source: NWS Daily Summary

Daily Weather History Graph

Daily Weather History Graph

Search for Another Location

Airport or City:

Trip Planner

Search our weather history database for the weather conditions in past years. The results will help you decide how hot, cold, wet, or windy it might be!

Date:

Astronomy

May. 06, 2013 Rise Set
Actual Time 6:09 AM CDT 8:34 PM CDT
Civil Twilight 5:37 AM CDT 9:07 PM CDT
Nautical Twilight 4:57 AM CDT 9:47 PM CDT
Astronomical Twilight 4:12 AM CDT 10:32 PM CDT
Moon 4:18 AM CDT (5/6) 5:30 PM CDT (5/6)
Length of Visible Light 15h 29m
Length of Day
14h 25m
Waning Crescent, 11% of the Moon is Illuminated
May 6
Waning Crescent
May 9
New
May 17
First Quarter
May 24
Full
May 31
Last Quarter

Hourly Weather History & Observations

Time (CDT) Temp. Windchill Dew Point Humidity Pressure Visibility Wind Dir Wind Speed Gust Speed Precip Events Conditions
12:13 AM 46.4 °F - 42.8 °F 87% 30.13 in 10.0 mi Calm Calm - N/A   Overcast
12:33 AM 44.6 °F 43.1 °F 42.8 °F 93% 30.13 in 10.0 mi NNE 3.5 mph - N/A   Overcast
12:53 AM 44.6 °F - 42.8 °F 93% 30.13 in 10.0 mi Calm Calm - N/A   Overcast
1:13 AM 44.6 °F - 42.8 °F 93% 30.13 in 10.0 mi Calm Calm - N/A   Overcast
1:33 AM 44.6 °F - 42.8 °F 93% 30.12 in 10.0 mi Calm Calm - N/A   Overcast
1:53 AM 44.6 °F - 42.8 °F 93% 30.12 in 10.0 mi Calm Calm - N/A   Overcast
2:13 AM 44.6 °F - 42.8 °F 93% 30.12 in 10.0 mi Calm Calm - N/A   Overcast
2:34 AM 44.6 °F - 42.8 °F 93% 30.12 in 10.0 mi Calm Calm - N/A   Overcast
2:53 AM 44.6 °F - 42.8 °F 93% 30.12 in 10.0 mi Calm Calm - N/A   Overcast
3:13 AM 44.6 °F - 42.8 °F 93% 30.11 in 10.0 mi Calm Calm - N/A   Overcast
3:33 AM 44.6 °F 43.1 °F 42.8 °F 93% 30.11 in 7.0 mi NNW 3.5 mph - N/A   Overcast
3:53 AM 44.6 °F 43.1 °F 42.8 °F 93% 30.11 in 7.0 mi North 3.5 mph - N/A   Overcast
4:13 AM 44.6 °F - 42.8 °F 93% 30.11 in 7.0 mi Calm Calm - N/A   Overcast
4:33 AM 44.6 °F 43.1 °F 42.8 °F 93% 30.11 in 10.0 mi NNW 3.5 mph - N/A   Overcast
4:53 AM 44.6 °F 43.1 °F 42.8 °F 93% 30.12 in 10.0 mi NNW 3.5 mph - N/A   Overcast
5:13 AM 44.6 °F - 42.8 °F 93% 30.11 in 10.0 mi Calm Calm - N/A   Overcast
5:33 AM 44.6 °F - 42.8 °F 93% 30.12 in 10.0 mi Calm Calm - N/A   Overcast
5:53 AM 44.6 °F - 42.8 °F 93% 30.11 in 10.0 mi Calm Calm - N/A   Overcast
6:13 AM 44.6 °F - 42.8 °F 93% 30.12 in 10.0 mi Calm Calm - N/A   Overcast
6:33 AM 44.6 °F - 42.8 °F 93% 30.12 in 7.0 mi Calm Calm - N/A   Overcast
6:53 AM 44.6 °F - 42.8 °F 93% 30.13 in 7.0 mi Calm Calm - N/A   Overcast
7:14 AM 44.6 °F - 42.8 °F 93% 30.13 in 7.0 mi Calm Calm - N/A   Overcast
7:33 AM 44.6 °F 42.2 °F 42.8 °F 93% 30.14 in 7.0 mi NNW 4.6 mph - N/A   Overcast
7:53 AM 44.6 °F 43.1 °F 42.8 °F 93% 30.14 in 10.0 mi NW 3.5 mph - N/A   Overcast
8:13 AM 44.6 °F 41.4 °F 42.8 °F 93% 30.14 in 10.0 mi WNW 5.8 mph - N/A   Overcast
8:33 AM 44.6 °F 43.1 °F 42.8 °F 93% 30.14 in 7.0 mi NW 3.5 mph - N/A   Overcast
8:53 AM 44.6 °F 43.1 °F 42.8 °F 93% 30.14 in 5.0 mi WNW 3.5 mph - N/A   Overcast
9:13 AM 44.6 °F - 42.8 °F 93% 30.14 in 5.0 mi Calm Calm - N/A   Overcast
9:33 AM 44.6 °F - 42.8 °F 93% 30.14 in 7.0 mi Calm Calm - N/A   Overcast
9:53 AM 44.6 °F 42.2 °F 42.8 °F 93% 30.14 in 7.0 mi WNW 4.6 mph - N/A   Overcast
10:13 AM 44.6 °F 43.1 °F 42.8 °F 93% 30.14 in 10.0 mi WNW 3.5 mph - N/A   Overcast
10:33 AM 44.6 °F - 42.8 °F 93% 30.14 in 10.0 mi Calm Calm - N/A   Overcast
10:53 AM 44.6 °F 43.1 °F 42.8 °F 93% 30.14 in 10.0 mi WNW 3.5 mph - N/A   Overcast
11:13 AM 46.4 °F - 42.8 °F 87% 30.14 in 10.0 mi Calm Calm - N/A   Overcast
11:33 AM 46.4 °F 45.2 °F 42.8 °F 87% 30.14 in 10.0 mi WNW 3.5 mph - N/A   Overcast
11:54 AM 46.4 °F - 44.6 °F 93% 30.14 in 10.0 mi Calm Calm - N/A   Overcast
12:13 PM 46.4 °F 44.3 °F 44.6 °F 93% 30.14 in 10.0 mi WNW 4.6 mph - N/A   Overcast
12:33 PM 46.4 °F 44.3 °F 44.6 °F 93% 30.14 in 10.0 mi WNW 4.6 mph - N/A   Overcast
12:54 PM 48.2 °F - 44.6 °F 87% 30.14 in 10.0 mi West 4.6 mph - N/A   Overcast
1:13 PM 48.2 °F - 44.6 °F 87% 30.14 in 10.0 mi WNW 3.5 mph - N/A   Overcast
1:33 PM 50.0 °F - 44.6 °F 82% 30.13 in 10.0 mi West 4.6 mph - N/A   Overcast
1:54 PM 51.8 °F - 44.6 °F 76% 30.13 in 10.0 mi West 4.6 mph - N/A   Overcast
2:13 PM 53.6 °F - 46.4 °F 77% 30.12 in 10.0 mi WSW 4.6 mph - N/A   Mostly Cloudy
2:33 PM 53.6 °F - 44.6 °F 72% 30.12 in 10.0 mi Calm Calm - N/A   Scattered Clouds
2:54 PM 55.4 °F - 46.4 °F 72% 30.11 in 10.0 mi WNW 5.8 mph - N/A   Scattered Clouds
3:13 PM 57.2 °F - 46.4 °F 67% 30.10 in 10.0 mi Calm Calm - N/A   Clear
3:33 PM 57.2 °F - 46.4 °F 67% 30.09 in 10.0 mi WNW 3.5 mph - N/A   Clear
3:54 PM 57.2 °F - 46.4 °F 67% 30.09 in 10.0 mi Calm Calm - N/A   Clear
4:13 PM 60.8 °F - 46.4 °F 59% 30.08 in 10.0 mi Calm Calm - N/A   Clear
4:33 PM 59.0 °F - 46.4 °F 63% 30.07 in 10.0 mi WSW 3.5 mph - N/A   Clear
4:54 PM 60.8 °F - 46.4 °F 59% 30.07 in 10.0 mi SW 5.8 mph - N/A   Clear
5:13 PM 60.8 °F - 46.4 °F 59% 30.06 in 10.0 mi West 4.6 mph - N/A   Clear
5:33 PM 60.8 °F - 46.4 °F 59% 30.06 in 10.0 mi Calm Calm - N/A   Clear
5:53 PM 60.8 °F - 46.4 °F 59% 30.06 in 10.0 mi WSW 3.5 mph - N/A   Clear
6:13 PM 60.8 °F - 46.4 °F 59% 30.06 in 10.0 mi Calm Calm - N/A   Clear
6:33 PM 60.8 °F - 46.4 °F 59% 30.05 in 10.0 mi Calm Calm - N/A   Clear
6:54 PM 60.8 °F - 44.6 °F 55% 30.05 in 10.0 mi Calm Calm - N/A   Clear
7:13 PM 60.8 °F - 44.6 °F 55% 30.05 in 10.0 mi Calm Calm - N/A   Clear
7:33 PM 60.8 °F - 44.6 °F 55% 30.05 in 10.0 mi Calm Calm - N/A   Clear
7:53 PM 60.8 °F - 44.6 °F 55% 30.05 in 10.0 mi Calm Calm - N/A   Clear
8:13 PM 59.0 °F - 44.6 °F 59% 30.05 in 10.0 mi WSW 3.5 mph - N/A   Clear
8:33 PM 57.2 °F - 46.4 °F 67% 30.05 in 10.0 mi SW 3.5 mph - N/A   Clear
8:54 PM 53.6 °F - 44.6 °F 72% 30.05 in 10.0 mi Calm Calm - N/A   Clear
9:13 PM 53.6 °F - 44.6 °F 72% 30.06 in 10.0 mi SW 3.5 mph - N/A   Clear
9:54 PM 51.8 °F - 44.6 °F 76% 30.07 in 10.0 mi Calm Calm - N/A   Clear
10:13 PM 51.8 °F - 44.6 °F 76% 30.07 in 10.0 mi SSW 4.6 mph - N/A   Clear
10:33 PM 50.0 °F - 44.6 °F 82% 30.07 in 10.0 mi SSW 5.8 mph - N/A   Clear
10:54 PM 48.2 °F - 44.6 °F 87% 30.07 in 10.0 mi South 5.8 mph - N/A   Clear
11:13 PM 50.0 °F - 44.6 °F 82% 30.07 in 10.0 mi South 5.8 mph - N/A   Clear
11:33 PM 51.8 °F - 44.6 °F 76% 30.06 in 10.0 mi South 4.6 mph - N/A   Clear
11:54 PM 51.8 °F - 44.6 °F 76% 30.06 in 10.0 mi Calm Calm - N/A   Clear